Hourly Data Report for May 13, 2012

All times are specified in Local Standard Time (LST). Add 1 hour to adjust for Daylight Saving Time where and when it is observed.

YARMOUTH A
NOVA SCOTIA

43°49'37.000" N
66°05'17.000" W
42.90 m
8206495
71603
YQI

Download Data

Hourly Data (May 2012)
Hourly Data Report for May 13, 2012
Temp Definition
°C
Dew Point Temp Definition
°C
Rel Hum Definition
%
Wind Dir Definition
10's deg

Wind Spd Definition
km/h
Visibility Definition
km
Stn Press Definition
kPa
Hmdx Definition


Wind Chill Definition


Weather Definition


TIME
00:00 Legend Double Dagger 6.4 4.2 86 9 4 10.0 101.62     LegendNANA
01:00 Legend Double Dagger 5.0 3.0 87 18 6 10.0 101.61     LegendNANA
02:00 Legend Double Dagger 4.7 3.8 94 10 4 10.0 101.61     Clear
03:00 Legend Double Dagger 5.1 4.4 95 7 7 10.0 101.62     LegendNANA
04:00 Legend Double Dagger 5.1 4.5 96 9 8 10.0 101.65     LegendNANA
05:00 Legend Double Dagger 4.3 4.2 99 7 4 0.8 101.74     Fog
06:00 Legend Double Dagger 6.6 6.5 99 11 13 10.0 101.76     Fog
07:00 Legend Double Dagger 9.2 7.0 86 11 9 10.0 101.83     LegendNANA
08:00 Legend Double Dagger 11.9 8.6 80 15 9 10.0 101.86     Mainly Clear
09:00 Legend Double Dagger 14.6 5.5 54 16 14 10.0 101.84     LegendNANA
10:00 Legend Double Dagger 15.2 4.4 48 17 18 10.0 101.82     LegendNANA
11:00 Legend Double Dagger 15.5 5.2 50 17 16 10.0 101.83     Cloudy
12:00 Legend Double Dagger 15.6 5.3 50 18 19 10.0 101.77     LegendNANA
13:00 Legend Double Dagger 16.3 5.7 49 18 24 10.0 101.75     LegendNANA
14:00 Legend Double Dagger 14.7 3.6 47 17 28 10.0 101.73     Cloudy
15:00 Legend Double Dagger 14.3 3.2 47 16 25 10.0 101.69     LegendNANA
16:00 Legend Double Dagger 13.3 3.2 50 16 24 10.0 101.67     LegendNANA
17:00 Legend Double Dagger 14.3 3.8 49 16 28 10.0 101.66     Cloudy
18:00 Legend Double Dagger 12.9 8.6 75 15 24 10.0 101.63     LegendNANA
19:00 Legend Double Dagger 11.6 9.2 85 16 19 10.0 101.66     LegendNANA
20:00 Legend Double Dagger 10.6 9.0 90 15 15 10.0 101.68     Cloudy
21:00 Legend Double Dagger 10.0 9.1 94 15 15 10.0 101.73     LegendNANA
22:00 Legend Double Dagger 9.7 9.1 96 14 13 10.0 101.70     LegendNANA
23:00 Legend Double Dagger 9.1 8.7 97 12 8 10.0 101.68     Mostly Cloudy

Notes on Data Quality.

Legend

  • E = Estimated
  • M = Missing
  • NA = Not Available
  • ‡ = Partner data that is not subject to review by the National Climate Archives
Date modified: